Weather Roundup
Issued by NWS Springfield, MO

Home | Current Version | Previous Version | Text Only | Print | Product List | Glossary On
Versions: 1 2 3 4 5 6 7 8 9 10 11 12 13 14 15 16 17 18 19 20 21 22 23 24 25 26 27 28 29 30 31 32 33 34 35 36 37 38 39 40 41 42 43 44 45 46 47 48 49 50
000
NZUS99 KSGF 292259
HRRSGF

HOURLY WEATHER
NATIONAL WEATHER SERVICE SPRINGFIELD MO
600 PM CDT WED JUL 29 2015

......SGF CWA......

CITY           SKY/WX    TMP DP  RH WIND       PRES   REMARKS
SPRINGFIELD    SUNNY     87  70  56 N15       30.08S HX  92
JOPLIN         SUNNY     87  73  62 NE12G17   30.07S HX  94
WEST PLAINS    MOSUNNY   87  74  64 N14       30.07R HX  95
ROLLA          SUNNY     85  67  54 N10       30.08S
OSAGE BEACH    SUNNY     84  66  54 N7        30.10R
BRANSON        MOSUNNY   91  72  52 NW5       30.06F HX  98

......SURROUNDING SGF CWA......

CITY           SKY/WX    TMP DP  RH WIND       PRES   REMARKS
CHANUTE        MOSUNNY   86  70  58 NE8       30.09S HX  90
PARSONS        MOSUNNY   90  74  59 NE8       30.06F HX  99
COFFEYVILLE    PTSUNNY   91  75  59 NE12      30.03S HX 101
EMPORIA        PTSUNNY   83  70  64 NE12      30.14R
SILOAM SPRINGS MOSUNNY   90  70  51 CALM      30.04F HX  95
HARRISON AR    SUNNY     92  71  50 VRB3      30.06S HX  98
NEAR YELLVILLE SUNNY     93  72  49 W7        30.01S HX 100

......KANSAS AND MISSOURI......

CITY           SKY/WX    TMP DP  RH WIND       PRES   REMARKS
KANSAS CTY INT PTSUNNY   82  69  64 N5        30.14S
DOWNTOWN KC    MOSUNNY   86  66  51 N7        30.12R
COLUMBIA       SUNNY     85  65  51 N10       30.10F
SEDALIA        MOSUNNY   83  63  50 N8        30.12F
ST JOSEPH      MOSUNNY   84  65  52 CALM      30.15R
ST LOUIS       MOSUNNY   88  65  46 N12       30.04S HX  90
SPIRIT OF STL  MOSUNNY   87  61  41 N10       30.04R
KIRKSVILLE     MOSUNNY   81  58  45 NW6       30.12F
WICHITA        LGT RAIN  77  71  82 NE12      30.12F
TOPEKA         PTSUNNY   84  68  58 N7        30.15R
OLATHE         MOSUNNY   82  62  50 NE7       30.13S

......TENNESSEE......

CITY           SKY/WX    TMP DP  RH WIND       PRES   REMARKS
MEMPHIS        PTSUNNY   97  74  47 NW7       29.96F HX 108
NASHVILLE      MOSUNNY   92  77  61 W7        29.96F HX 105

......ARKANSAS.......

CITY           SKY/WX    TMP DP  RH WIND       PRES   REMARKS
FAYETTEVILLE   SUNNY     91  72  53 SW6       30.05F HX  98
FT SMITH       SUNNY     96  65  35 NE9       29.99S HX  98
LITTLE ROCK    MOSUNNY   98  70  40 S5        29.96S HX 105

......OKLAHOMA.......

CITY           SKY/WX    TMP DP  RH WIND       PRES   REMARKS
TULSA          MOSUNNY   95  72  47 E5        30.00F HX 103
PONCA CITY     MOSUNNY   95  70  44 E7        30.05R HX 101
MCALESTER      MOSUNNY   98  66  34 VRB3      30.00F HX 101
OKLAHOMA CITY  MOSUNNY   94  70  45 S10G18    30.02F HX 100

......IOWA............

CITY           SKY/WX    TMP DP  RH WIND       PRES   REMARKS
DES MOINES     MOSUNNY   84  52  33 NW13      30.10S
QUAD CITIES    SUNNY     83  57  41 W15       30.03F

......ILLINOIS........

CITY           SKY/WX    TMP DP  RH WIND       PRES   REMARKS
QUINCY         SUNNY     82  61  48 NW8       30.08F
CHICAGO        MOSUNNY   84  52  33 W15G21    29.96S



USA.gov is the U.S. government's official web portal to all federal, state and local government web resources and services.